Weather History for PATA - May, 2014

Change the Weather History Date:

Sunday, May 11, 2014

  Actual Average Record
Temperature  
Mean Temperature 48 °F -  
Max Temperature 68 °F 53 °F 71 °F (2005)
Min Temperature 30 °F 31 °F 14 °F (1964)
Degree Days  
Heating Degree Days 17    
Moisture  
Dew Point 33 °F    
Average Humidity 57    
Maximum Humidity 92    
Minimum Humidity 27    
Precipitation  
Precipitation 0.00 in - - ()
Sea Level Pressure  
Sea Level Pressure 30.31 in    
Wind  
Wind Speed 2 mph (NNE)    
Max Wind Speed 6 mph    
Max Gust Speed -    
Visibility 10 miles    
Events      
Averages and records for this station are not official NWS values.
T = Trace of Precipitation, MM = Missing Value Source: NWS Daily Summary

Daily Weather History Graph

Daily Weather History Graph

Search for Another Location

Airport or City:

Trip Planner

Search our weather history database for the weather conditions in past years. The results will help you decide how hot, cold, wet, or windy it might be!

Date:

Astronomy

May. 11, 2014 Rise Set
Actual Time 4:55 AM AKDT 11:17 PM AKDT
Civil Twilight 3:09 AM AKDT 1:09 AM AKDT
Nautical Twilight Sun does not rise Sun does not rise
Astronomical Twilight Sun does not rise Sun does not rise
Moon 7:06 PM AKDT (5/11) 4:36 AM AKDT (5/11)
Length of Visible Light 22h 00m
Length of Day
18h 22m
Waxing Gibbous, 90% of the Moon is Illuminated
May 11
Waxing Gibbous
May 14
Full
May 21
Last Quarter
May 28
New
Jun 5
First Quarter

Hourly Weather History & Observations

Time (AKDT) Temp. Windchill Dew Point Humidity Pressure Visibility Wind Dir Wind Speed Gust Speed Precip Events Conditions
12:52 AM 39.0 °F - 34.0 °F 82% 30.34 in 10.0 mi Calm Calm - N/A   Clear
1:52 AM 34.0 °F - 30.0 °F 85% 30.34 in 10.0 mi Calm Calm - N/A   Clear
2:52 AM 34.0 °F 31.0 °F 30.0 °F 85% 30.35 in 10.0 mi North 3.5 mph - N/A   Clear
3:52 AM 34.0 °F 31.0 °F 30.0 °F 85% 30.35 in 10.0 mi NNW 3.5 mph - N/A   Clear
4:52 AM 30.0 °F - 28.0 °F 92% 30.36 in 10.0 mi Calm Calm - N/A   Clear
5:52 AM 30.9 °F 25.2 °F 28.0 °F 89% 30.36 in 10.0 mi WNW 5.8 mph - N/A   Clear
6:52 AM 35.1 °F - 30.9 °F 85% 30.36 in 10.0 mi Calm Calm - N/A   Clear
7:52 AM 39.0 °F 36.8 °F 32.0 °F 76% 30.36 in 10.0 mi WSW 3.5 mph - N/A   Partly Cloudy
8:52 AM 41.0 °F - 34.0 °F 76% 30.36 in 10.0 mi Calm Calm - N/A   Clear
9:52 AM 48.9 °F - 35.1 °F 59% 30.35 in 10.0 mi WSW 3.5 mph - N/A   Clear
10:52 AM 52.0 °F - 36.0 °F 54% 30.35 in 10.0 mi Calm Calm - N/A   Partly Cloudy
11:52 AM 57.0 °F - 36.0 °F 45% 30.34 in 10.0 mi Calm Calm - N/A   Partly Cloudy
12:52 PM 59.0 °F - 36.0 °F 42% 30.33 in 10.0 mi Calm Calm - N/A   Partly Cloudy
1:52 PM 60.1 °F - 34.0 °F 38% 30.32 in 10.0 mi Calm Calm - N/A   Partly Cloudy
2:52 PM 63.0 °F - 30.9 °F 30% 30.31 in 10.0 mi Calm Calm - N/A   Scattered Clouds
3:52 PM 66.0 °F - 30.9 °F 27% 30.29 in 10.0 mi Calm Calm - N/A   Scattered Clouds
4:52 PM 64.0 °F - 34.0 °F 33% 30.27 in 10.0 mi SE 4.6 mph - N/A   Scattered Clouds
5:52 PM 66.9 °F - 32.0 °F 27% 30.25 in 10.0 mi SE 3.5 mph - N/A   Scattered Clouds
6:52 PM 64.9 °F - 33.1 °F 31% 30.25 in 10.0 mi ESE 4.6 mph - N/A   Scattered Clouds
7:52 PM 61.0 °F - 34.0 °F 36% 30.24 in 10.0 mi East 3.5 mph - N/A   Mostly Cloudy
8:52 PM 61.0 °F - 32.0 °F 34% 30.23 in 10.0 mi Calm Calm - N/A   Mostly Cloudy
9:52 PM 57.9 °F - 33.1 °F 39% 30.24 in 10.0 mi Calm Calm - N/A   Mostly Cloudy
10:52 PM 54.0 °F - 35.1 °F 49% 30.24 in 10.0 mi NNE 4.6 mph - N/A   Clear
11:52 PM 48.0 °F - 34.0 °F 58% 30.25 in 10.0 mi NNE 3.5 mph - N/A   Clear